Weather History for Mt. Pocono, PA

Change the Weather History Date:

Sunday, February 23, 2014

  Actual Average Record
Temperature  
Mean Temperature 33 °F 28 °F  
Max Temperature 45 °F 36 °F 60 °F (1977)
Min Temperature 21 °F 19 °F -13 °F (1908)
Degree Days  
Heating Degree Days 32 37  
Month to date heating degree days 989 908  
Since 1 July heating degree days 5167 4939  
Cooling Degree Days 0 0  
Month to date cooling degree days 0 0  
Year to date cooling degree days 0 0  
Moisture  
Dew Point 22 °F    
Average Humidity 61    
Maximum Humidity 81    
Minimum Humidity 40    
Precipitation  
Precipitation 0.00 in 0.09 in 1.40 in (1974)
Month to date precipitation 2.95 1.92  
Year to date precipitation 6.30 4.77  
Sea Level Pressure  
Sea Level Pressure 29.93 in    
Wind  
Wind Speed 9 mph (WNW)    
Max Wind Speed 18 mph    
Max Gust Speed 24 mph    
Visibility 10 miles    
Events      
T = Trace of Precipitation, MM = Missing Value Source: NWS Daily Summary

Daily Weather History Graph

Daily Weather History Graph

Search for Another Location

Airport:

Trip Planner

Search our weather history database for the weather conditions in past years. The results will help you decide how hot, cold, wet, or windy it might be!

Date:

Astronomy

Feb. 23, 2014 Rise Set
Actual Time 6:44 AM EST 5:45 PM EST
Civil Twilight 6:17 AM EST 6:13 PM EST
Nautical Twilight 5:45 AM EST 6:45 PM EST
Astronomical Twilight 5:13 AM EST 7:17 PM EST
Moon 1:42 AM EST (2/23) 11:44 AM EST (2/23)
Length of Visible Light 11h 56m
Length of Day
11h 00m
Last Quarter, 39% of the Moon is Illuminated
Feb 23
Last Quarter
Mar 1
New
Mar 8
First Quarter
Mar 16
Full
Mar 23
Last Quarter

Hourly Weather History & Observations

Time (EST) Temp. Windchill Dew Point Humidity Pressure Visibility Wind Dir Wind Speed Gust Speed Precip Events Conditions
12:53 AM 35.1 °F 29.3 °F 14.0 °F 42% 29.98 in 10.0 mi WNW 6.9 mph - N/A   Clear
1:53 AM 35.1 °F 28.6 °F 15.1 °F 44% 29.99 in 10.0 mi NW 8.1 mph - N/A   Partly Cloudy
2:53 AM 34.0 °F 28.8 °F 15.1 °F 46% 29.98 in 10.0 mi NW 5.8 mph - N/A   Clear
3:53 AM 24.1 °F 18.2 °F 16.0 °F 71% 29.99 in 10.0 mi NNW 4.6 mph - N/A   Clear
4:53 AM 25.0 °F 20.7 °F 16.0 °F 69% 30.00 in 10.0 mi West 3.5 mph - N/A   Clear
5:53 AM 23.0 °F 18.4 °F 17.1 °F 78% 30.01 in 10.0 mi NW 3.5 mph - N/A   Clear
6:53 AM 30.9 °F 25.2 °F 21.9 °F 69% 30.00 in 10.0 mi NW 5.8 mph - N/A   Clear
7:53 AM 30.9 °F 27.5 °F 23.0 °F 72% 30.01 in 10.0 mi NW 3.5 mph - N/A   Scattered Clouds
8:53 AM 34.0 °F 29.8 °F 24.1 °F 67% 30.00 in 10.0 mi NW 4.6 mph - N/A   Overcast
9:53 AM 36.0 °F 30.3 °F 25.0 °F 64% 29.99 in 10.0 mi WNW 6.9 mph - N/A   Scattered Clouds
10:53 AM 39.0 °F 33.4 °F 25.0 °F 57% 29.98 in 10.0 mi NW 8.1 mph - N/A   Clear
11:53 AM 41.0 °F 36.4 °F 25.0 °F 53% 29.95 in 10.0 mi WNW 6.9 mph - N/A   Clear
12:53 PM 44.1 °F 38.1 °F 25.0 °F 47% 29.92 in 10.0 mi WNW 11.5 mph - N/A   Partly Cloudy
1:53 PM 43.0 °F 36.0 °F 25.0 °F 49% 29.91 in 10.0 mi West 13.8 mph 19.6 mph N/A   Overcast
2:53 PM 42.1 °F 35.7 °F 26.1 °F 53% 29.90 in 10.0 mi West 11.5 mph - N/A   Overcast
3:53 PM 42.1 °F 36.6 °F 26.1 °F 53% 29.88 in 10.0 mi WSW 9.2 mph - N/A   Overcast
4:53 PM 42.1 °F 34.5 °F 25.0 °F 51% 29.89 in 10.0 mi West 15.0 mph - N/A   Mostly Cloudy
5:53 PM 41.0 °F 35.2 °F 26.1 °F 55% 29.90 in 10.0 mi West 9.2 mph - N/A   Overcast
6:53 PM 39.9 °F 33.4 °F 26.1 °F 58% 29.90 in 10.0 mi West 10.4 mph - N/A   Overcast
7:53 PM 39.0 °F 31.8 °F 27.0 °F 62% 29.88 in 10.0 mi West 11.5 mph - N/A   Overcast
8:53 PM 37.9 °F 30.0 °F 25.0 °F 60% 29.87 in 10.0 mi West 12.7 mph - N/A   Overcast
9:53 PM 37.0 °F 29.3 °F 23.0 °F 57% 29.86 in 10.0 mi West 11.5 mph - N/A   Overcast
10:53 PM 36.0 °F 29.0 °F 21.9 °F 57% 29.83 in 10.0 mi WNW 9.2 mph - N/A   Overcast
11:53 PM 35.1 °F 25.9 °F 21.9 °F 59% 29.82 in 10.0 mi West 13.8 mph 19.6 mph N/A   Overcast